Theta_e
303 303 305 306 304 306 306 306 307 305 302 304 302 301 300 300 299 299 298 299 299 299 300 301 302 302 302 303 303 302 302 301 301 300 299 298 297 297 297 297 297 296 296 296
303 305 306 305 304 306 305 305 305 303 302 303 302 302 301 299 298 298 298 298 299 299 299 300 301 301 301 301 301 301 301 300 299 298 297 296 296 296 296 296 295 295 295 294
306 307 305 305 305 305 304 304 304 305 302 301 301 301 300 299 298 297 297 297 298 298 298 299 299 299 300 300 299 299 298 297 297 296 295 295 295 295 294 295 294 294 293 293
306 304 304 304 304 304 306 303 302 302 301 305 300 302 301 299 298 298 298 297 297 297 297 297 297 297 297 297 297 296 296 295 295 295 294 294 294 294 294 294 293 292 293 293
305 303 303 304 304 303 304 301 301 301 299 296 301 296 300 298 299 297 296 297 297 297 297 297 297 296 296 296 295 295 295 294 294 294 293 293 293 293 293 292 292 292 293 293
303 301 303 303 301 302 301 302 302 300 297 297 298 300 302 298 297 298 296 297 297 297 297 297 297 296 296 295 295 295 294 294 293 293 293 292 292 292 292 292 292 292 292 294
303 303 301 301 302 302 302 304 301 298 296 301 298 300 302 298 295 295 295 297 297 296 296 296 296 295 295 295 295 294 293 293 292 292 291 291 291 291 291 292 292 293 294 294
307 305 302 302 302 303 303 303 304 300 298 300 299 298 302 293 293 295 297 297 297 296 295 295 296 296 295 294 294 294 293 292 291 291 291 291 291 291 292 292 293 293 294 294
305 305 300 300 300 301 303 304 299 296 290 297 296 298 298 296 292 292 296 296 296 296 294 294 294 295 294 293 294 293 293 292 291 291 291 291 291 292 292 292 292 293 294 294
303 302 301 299 299 299 301 299 303 296 298 299 295 295 299 294 291 290 290 295 295 295 294 293 293 294 293 294 293 293 293 292 292 292 292 292 292 292 292 292 293 294 294 294
300 300 301 300 299 301 300 300 300 301 295 293 292 296 289 292 289 290 289 295 295 295 294 294 293 293 294 294 294 294 294 294 293 293 292 292 292 292 292 293 294 294 295 294
301 298 301 297 293 296 296 296 299 300 296 294 290 296 282 283 286 291 294 295 295 295 295 295 295 294 293 294 294 294 295 295 294 293 292 292 292 293 293 294 294 295 294 294
300 301 300 301 299 298 298 297 295 294 291 296 298 297 281 280 283 292 294 295 295 294 294 294 294 295 294 294 294 295 295 295 294 293 293 293 293 293 293 294 294 294 294 294
301 299 297 302 299 297 299 300 297 296 297 293 293 290 286 289 286 289 294 295 295 294 294 293 293 294 295 295 294 294 295 295 295 294 294 294 293 294 294 294 294 294 293 293
298 299 293 293 292 292 291 293 298 299 292 299 292 291 288 288 289 289 295 294 294 294 293 293 293 293 294 294 295 294 294 294 295 294 294 293 293 294 294 293 293 293 293 292
296 297 293 295 290 286 297 296 292 298 298 289 278 289 285 286 289 291 294 293 292 292 292 292 292 292 293 293 294 294 295 294 294 294 294 294 293 292 292 293 293 293 292 291
296 293 294 293 290 291 293 292 295 292 290 297 297 294 278 282 278 290 291 289 290 290 290 291 292 292 292 293 293 293 293 295 295 294 294 293 293 293 291 290 291 291 290 289
292 292 293 289 290 293 291 276 284 293 287 288 281 279 282 287 291 292 290 290 290 290 289 290 290 291 291 291 291 291 291 291 293 294 293 293 292 292 292 291 290 289 289 289
291 293 289 291 288 291 293 284 288 291 291 287 292 278 283 289 289 288 288 288 289 288 287 287 288 288 288 289 288 288 289 289 290 290 292 292 291 291 291 291 291 291 289 289
295 292 293 284 289 290 288 284 285 281 292 276 281 282 280 288 287 283 289 288 287 286 286 286 286 286 287 287 287 287 287 287 288 288 289 289 291 291 292 291 291 291 290 290
296 296 293 288 284 288 285 288 289 293 292 285 286 286 288 287 288 288 287 286 286 286 286 286 286 286 287 287 287 287 287 287 287 287 288 288 289 289 290 291 291 291 290 290
294 294 291 289 289 293 289 290 292 290 288 291 290 290 290 289 287 286 286 286 286 286 286 286 286 286 286 286 286 287 286 287 287 287 288 288 288 289 289 290 290 290 290 289
292 292 292 292 293 289 290 292 291 293 294 292 290 288 288 287 286 286 286 286 286 286 286 286 286 286 285 285 285 286 286 286 286 286 287 287 288 288 288 288 289 289 288 288
289 290 292 292 290 288 294 292 293 294 291 290 289 288 287 287 287 286 286 285 285 285 285 285 286 286 286 285 285 285 285 285 285 285 286 286 287 287 287 286 286 287 287 286
292 291 292 292 291 291 294 294 293 293 290 289 288 288 287 287 286 285 285 285 284 284 285 285 285 285 285 285 285 284 284 285 285 284 285 285 285 285 285 285 285 285 285 284
291 292 293 293 293 294 295 295 293 292 290 289 289 287 286 285 285 284 284 284 284 284 284 284 284 285 285 285 284 284 284 284 284 284 284 284 284 284 284 284 285 283 282 282
Wind_Speed
6 4 10 16 8 2 5 5 5 2 1 2 6 7 10 11 6 6 5 5 5 4 4 3 4 11 16 20 22 23 21 20 20 20 21 21 21 20 20 20 21 21 21 18
3 12 10 4 6 5 3 4 5 2 2 0 4 11 7 1 1 2 2 2 2 2 3 4 4 6 10 14 17 18 19 20 20 21 21 20 19 19 19 20 21 20 19 17
7 3 7 7 5 7 5 5 4 3 3 1 5 7 3 2 2 2 1 0 0 1 2 3 4 6 9 12 14 17 19 21 21 19 18 19 20 20 20 20 20 19 18 17
8 3 7 6 6 6 5 6 5 5 3 4 2 5 5 5 5 4 5 2 1 1 1 2 5 7 10 12 14 15 16 17 19 20 21 20 20 20 20 19 18 17 17 16
7 8 6 4 4 6 4 5 5 4 4 4 1 2 6 3 5 6 7 7 4 4 6 7 8 10 12 14 15 16 18 19 21 21 21 21 21 19 18 17 16 15 16 14
0 1 3 4 4 3 9 6 6 4 3 1 4 4 4 5 6 4 5 8 5 5 6 7 9 10 11 14 15 17 18 19 19 19 19 19 18 17 16 16 15 14 14 14
2 1 1 4 7 4 3 5 2 3 2 5 1 3 8 5 5 5 5 2 2 4 7 9 10 12 12 14 15 17 18 17 18 18 17 17 16 15 15 14 14 14 14 15
8 4 7 3 3 6 6 5 5 7 4 3 1 6 6 6 2 4 2 0 4 7 10 12 12 12 13 13 14 15 16 16 17 16 16 15 14 14 14 15 15 15 16 15
7 4 3 3 2 1 6 4 3 7 1 3 3 6 6 5 1 1 2 1 3 7 9 9 8 9 11 13 13 13 14 14 15 15 15 15 15 15 15 15 15 15 15 14
6 5 2 2 1 3 2 4 3 2 3 4 4 5 5 5 6 3 1 1 3 6 7 7 6 7 9 11 12 12 13 14 15 16 15 13 12 13 13 12 11 12 14 13
5 4 3 5 5 7 3 2 2 3 3 5 1 6 6 9 8 8 6 4 4 4 6 8 7 7 8 9 9 10 10 11 12 13 12 11 12 11 9 9 12 14 14 13
4 4 4 3 3 1 1 4 4 4 5 1 3 6 2 4 6 8 5 4 4 3 5 7 8 8 8 8 8 9 10 9 10 10 10 10 9 9 9 11 13 13 11 10
6 3 4 2 0 1 4 5 3 4 3 7 6 5 3 3 4 7 8 6 6 5 4 6 8 8 8 8 8 9 10 10 10 10 10 9 9 9 11 11 10 8 8 8
6 3 4 6 3 3 6 7 8 5 4 5 6 4 4 7 7 7 7 7 8 8 6 7 9 9 10 10 9 9 10 11 11 10 10 9 11 12 11 10 7 7 7 7
3 3 3 1 3 2 3 4 13 13 5 8 4 9 6 9 10 15 8 5 7 10 12 9 11 11 11 11 10 11 12 12 12 11 10 10 12 11 9 7 8 7 6 6
3 3 2 2 3 4 3 5 6 12 9 7 3 7 8 3 6 6 7 7 8 9 9 10 10 13 14 14 14 12 12 14 14 12 12 13 13 12 10 10 10 9 7 8
4 5 3 3 1 1 6 11 16 6 5 10 11 9 4 1 3 7 6 4 3 6 10 10 13 16 17 17 16 15 14 13 15 15 14 16 17 16 14 14 14 12 12 14
5 4 2 2 1 1 6 0 1 12 5 11 2 4 5 4 7 5 6 3 3 8 12 13 15 16 16 18 18 16 16 17 16 16 16 19 20 21 19 20 20 18 18 19
2 4 3 4 3 6 2 4 6 7 7 12 17 4 5 7 2 6 10 5 7 11 12 14 16 18 17 18 18 17 15 16 17 17 18 18 21 24 24 25 25 24 24 24
4 5 3 2 4 6 6 3 6 3 5 3 6 7 6 11 1 4 11 7 9 10 12 13 13 14 15 15 15 15 15 15 15 16 17 19 21 24 25 26 27 28 30 31
4 3 4 3 1 7 5 4 7 5 5 3 4 10 14 5 5 7 5 6 7 9 9 10 11 13 14 14 13 14 15 15 16 16 16 17 19 21 23 26 27 28 29 32
4 6 3 3 2 8 7 6 6 4 4 6 7 9 9 6 6 4 4 4 5 6 8 9 9 11 12 13 14 14 16 16 17 17 17 17 18 19 20 21 23 25 27 29
2 5 4 7 5 2 15 2 4 5 5 7 6 7 7 7 7 5 2 1 4 5 7 9 9 11 12 14 15 16 16 17 17 16 16 17 17 17 18 19 20 21 22 25
3 4 2 2 2 4 10 17 7 9 4 6 7 8 8 7 6 4 2 1 3 5 7 9 10 11 12 13 15 16 17 18 18 18 17 16 17 16 15 16 17 19 19 20
2 6 4 3 4 3 12 15 16 13 9 10 10 9 8 7 6 4 2 2 4 7 9 11 13 13 14 15 16 17 18 18 18 18 18 17 17 17 16 15 16 16 15 16
7 6 4 5 8 4 3 6 20 19 15 13 12 12 9 8 6 4 3 4 6 8 11 12 13 14 14 15 16 17 18 19 19 18 18 19 19 19 18 18 15 11 14 15
Wind_Direction
195 167 204 206 199 135 139 181 201 221 51 287 247 268 280 318 2 358 359 4 4 7 14 338 239 212 212 209 210 214 225 239 253 264 271 272 270 270 271 275 279 284 285 286
128 233 221 167 192 199 180 188 234 273 111 310 323 282 268 276 301 311 318 4 18 71 93 91 117 156 178 194 203 220 237 252 263 269 271 269 268 268 272 275 278 279 280 280
186 232 172 157 165 173 204 192 184 199 333 114 334 287 211 233 196 237 243 262 241 231 238 232 217 212 220 229 238 247 257 265 269 270 270 271 273 275 277 276 276 277 277 277
242 208 156 157 190 148 193 175 128 119 88 235 8 280 268 203 227 233 239 223 167 83 0 297 272 261 258 257 258 261 264 268 271 274 278 279 278 279 278 275 272 271 272 274
217 177 164 160 202 151 211 115 117 109 95 48 276 77 269 128 243 236 216 208 212 298 296 282 275 269 269 268 269 270 271 273 275 278 280 280 278 277 275 272 270 269 270 274
19 70 136 155 69 98 136 84 61 57 87 337 226 152 256 193 203 186 183 202 274 301 292 290 282 274 272 271 273 275 276 278 279 279 278 278 277 275 273 271 268 266 268 272
148 119 39 131 92 30 85 119 17 346 15 221 250 153 255 230 208 181 180 232 327 313 300 288 282 280 278 277 277 277 276 276 277 278 278 278 276 274 270 268 266 268 269 269
167 210 176 174 189 177 185 163 168 205 195 246 47 231 251 213 167 171 186 346 303 309 302 289 279 277 274 279 280 275 273 273 275 278 278 277 277 274 271 270 270 271 269 263
165 189 93 79 135 139 177 194 135 103 53 47 233 287 285 155 318 194 139 154 330 331 328 316 294 278 278 283 282 279 275 276 276 276 276 276 276 275 273 273 275 273 267 261
184 113 182 133 119 42 144 160 97 10 154 240 280 279 241 224 222 248 348 271 323 330 343 340 327 298 293 291 286 280 277 277 277 276 276 273 272 273 276 276 275 271 259 255
143 105 115 140 206 168 140 184 87 117 133 166 229 258 214 205 179 176 214 226 268 317 352 354 342 320 305 296 295 297 292 286 278 274 272 274 275 271 271 276 269 260 255 252
174 112 135 190 245 194 98 188 164 140 210 170 154 271 256 203 173 167 205 237 232 285 328 332 327 328 318 309 307 305 300 294 286 284 282 283 276 278 278 263 255 257 251 242
176 143 116 61 25 172 213 191 132 103 87 194 148 257 352 325 287 229 240 249 244 248 292 312 304 309 314 310 306 302 298 293 288 290 288 287 280 267 256 255 255 257 248 244
112 145 160 181 168 125 192 179 171 142 160 165 227 271 281 249 240 242 254 252 241 243 277 322 319 309 311 314 308 295 286 283 280 281 283 277 266 254 252 253 257 256 258 256
95 134 99 75 85 87 172 176 185 204 182 189 239 202 229 220 223 229 252 237 258 259 258 289 324 329 316 307 305 306 292 278 273 277 276 272 265 260 256 259 257 250 247 248
22 111 94 40 33 45 252 202 222 232 232 269 124 274 216 199 188 205 208 258 266 264 276 280 305 323 321 314 307 304 304 297 278 268 267 267 265 260 259 256 253 250 245 245
126 135 117 242 10 1 300 215 206 199 200 207 219 229 174 219 208 199 227 250 246 292 300 298 301 316 316 312 311 307 298 292 293 274 265 263 263 262 260 258 257 254 251 251
129 102 67 145 22 313 244 266 261 217 227 222 288 230 185 182 149 195 177 216 265 297 313 313 311 311 308 308 308 307 300 292 284 283 270 261 262 262 259 258 257 255 255 256
105 120 95 142 196 290 282 237 162 169 274 207 218 188 179 134 128 236 207 254 294 311 310 309 314 314 314 311 310 308 301 294 289 283 278 275 272 269 266 263 262 260 258 259
99 88 107 123 149 217 242 257 197 148 297 236 183 168 152 148 141 253 192 261 299 302 308 315 314 314 315 313 313 313 311 305 300 294 288 283 278 276 274 272 268 264 262 262
130 119 161 153 206 287 242 213 153 91 242 179 172 174 166 176 175 155 228 277 290 306 316 320 318 320 323 325 326 323 320 316 313 309 303 297 292 286 281 277 274 272 269 266
152 146 168 115 128 269 158 120 169 207 151 151 135 145 165 175 186 198 232 266 289 311 320 323 326 331 333 331 332 330 325 323 319 317 313 307 301 296 293 287 282 277 275 273
222 177 175 185 211 228 194 206 204 151 163 180 178 169 165 165 167 167 196 278 314 323 327 335 337 340 338 337 337 337 333 330 328 325 320 315 312 308 302 297 293 289 284 282
255 174 151 70 273 233 228 225 218 201 206 185 182 176 171 167 159 159 156 310 330 338 342 347 346 345 344 341 340 339 336 334 333 333 331 326 323 319 317 309 304 301 298 293
200 148 178 270 278 307 260 236 225 210 203 189 180 175 170 162 155 146 127 32 7 1 357 354 352 351 347 344 342 340 338 336 336 338 338 336 333 331 328 324 320 310 308 306
187 188 168 215 212 196 231 279 213 204 198 191 183 170 165 159 153 138 100 55 35 23 15 8 359 354 349 345 343 342 340 339 339 341 341 342 342 340 338 334 330 325 311 304